Location: Góry Miechowskie
(50.3599°N, 20.1803°E)
Time: 21:46:01
(UTC+00:00)

ALOS - Visible Passes

Search period start: 19 September 2024 00:00
Search period end: 29 September 2024 00:00
Orbit: 671 x 673 km, 98.0° (Epoch: 19 September)

Date Brightness Start Highest point End Pass type
(mag) Time Alt. Az. Time Alt. Az. Time Alt. Az.
19 Sep 4.3 00:26:17 10° NE 00:29:32 21° E 00:29:32 21° E visible
19 Sep 2.3 02:02:47 10° N 02:07:17 53° WNW 02:07:46 51° W visible
20 Sep 3.3 00:59:00 10° NNE 01:03:06 41° E 01:03:06 41° E visible
20 Sep 3.2 02:36:26 10° N 02:40:22 28° WNW 02:41:20 26° W visible
20 Sep 5.0 23:57:23 10° ENE 23:58:25 11° E 23:58:25 11° E visible
21 Sep 2.2 01:32:07 10° NNE 01:36:39 82° ENE 01:36:39 82° ENE visible
21 Sep 4.0 03:10:30 10° NNW 03:13:18 16° WNW 03:14:53 14° W visible
22 Sep 4.3 00:28:55 10° NE 00:31:57 22° E 00:31:57 22° E visible
22 Sep 2.4 02:05:30 10° N 02:09:58 50° WNW 02:10:12 50° W visible
23 Sep 3.3 01:01:40 10° NNE 01:05:30 41° ENE 01:05:30 41° ENE visible
23 Sep 3.3 02:39:09 10° N 02:43:02 27° WNW 02:43:44 26° WNW visible
23 Sep 5.0 23:59:45 10° ENE 00:00:47 12° ENE 00:00:47 12° ENE visible
24 Sep 2.3 01:34:47 10° NNE 01:39:01 75° NNE 01:39:01 75° NNE visible
24 Sep 4.0 03:13:16 10° NNW 03:15:56 15° NW 03:17:15 14° WNW visible
25 Sep 4.3 00:31:30 10° NE 00:34:19 22° ENE 00:34:19 22° ENE visible
25 Sep 2.5 02:08:10 10° N 02:12:32 48° WNW 02:12:32 48° WNW visible
26 Sep 3.4 01:04:15 10° NNE 01:07:49 41° ENE 01:07:49 41° ENE visible
26 Sep 3.3 02:41:49 10° N 02:45:38 26° WNW 02:46:03 25° WNW visible
27 Sep 5.1 00:02:08 10° ENE 00:03:05 12° ENE 00:03:05 12° ENE visible
27 Sep 2.5 01:37:22 10° NNE 01:41:19 65° NNE 01:41:19 65° NNE visible
27 Sep 4.0 03:15:58 10° NNW 03:18:30 15° NW 03:19:33 14° WNW visible
28 Sep 4.4 00:34:01 10° NE 00:36:35 22° ENE 00:36:35 22° ENE visible
28 Sep 2.7 02:10:46 10° N 02:14:49 44° NW 02:14:49 44° NW visible
